Location: Clermont
(50.2608°N, 4.3172°E)
Time: 04:11:05
(UTC+00:00)

SPOT 3 Rocket - Pass Details

Date: 13 August 2020
Orbit: 778 x 795 km, 98.8° (Epoch: 19 September)

Event Time Altitude Azimuth Distance (km) Brightness Sun altitude
Exits shadow 20:01:48 - 169° (S) 3,227 6.3 -8.8°
Reaches altitude 10° 20:04:00 10° 172° (S) 2,353 5.6 -9.0°
Maximum altitude 20:09:11 72° 256° (WSW) 836 3.8 -9.7°
Drops below altitude 10° 20:14:24 10° 341° (NNW) 2,360 7.0 -10.4°
Sets 20:16:44 0° 344° (NNW) 3,291 7.8 -10.7°
